Tracking 19846 objects as of 20-Sep-2019
HD Live streaming from Space Station
objects crossing your sky now

PALAPA B4

Track PALAPA B4 now!
PALAPA B4 is classified as:


NORAD ID: 21964
Int'l Code: 1992-027A
Perigee: 35,871.0 km
Apogee: 35,907.2 km
Inclination: 10.8 °
Period: 1,441.0 minutes
Semi major axis: 42260 km
RCS: 12.5892 m2 (large)
Launch date: May 14, 1992
Source: Indonesia (INDO)
Launch site: AIR FORCE EASTERN TEST RANGE (AFETR)

Palapa B-4 was an Indonesian communications spacecraft launched by a Delta rocket.
aabbcc
Your satellite tracking list
Your tracking list is empty




NASA's NSSDC Master Catalog

Two Line Element Set (TLE):
1 21964U 92027A   19261.86477575 -.00000255 +00000-0 +00000-0 0  9993
2 21964 010.7959 033.8953 0004281 318.3162 056.7435 00.99932675022571
Source of the keplerian elements: AFSPC